Accueil
METAR-TAF:

METAR-TAF

Aéroports :

Fairford, Angleterre

latitude: 51-41N, longitude: 001-47W, altitude: 87 m

Observation

Le bulletin a été fait il y a 37 minutes, à 04:56 UTC
Vent 7 kt de sud-ouest
Température 9°C
Humidité 100%
Pression 1021 hPa
Ciel couvert à une hauteur de 2200 ft

METAR: EGVA 160456Z AUTO 22007KT M M OVC022 09/09 A3014 RMK AO2 SLP211 T00920087 RVRNO $

Heure: 05:33 (05:33 UTC)


TAF: absent

Observations et prévisions météorologiques de plus de 4000 aéroports (messages METAR et TAF).

Les stations disponibles sont représentées par des disques jaunes et rouges sur la carte.

Passer la souris dessus pour voir le nom de la station.

Cliquer dessus pour voir les observations et prévisions météorologiques.

Pour changer de carte: cliquez sur les boutons verts avec une croix noire pour zoomer, sur le bouton vert avec un tiret pour effectuer un zoom arrière, ou sur les flèches vertes pour les cartes adjacentes.


METAR-TAF: